QPF
0.01 0.00 0.01 0.01 0.02 0.01 0.01 0.01 0.01 0.02 0.02 0.03 0.04 0.08 0.08 0.06 0.05 0.03 0.01 0.01 0.02 0.02 0.03 0.04 0.03 0.02 0.01 0.02 0.02 0.02 0.02 0.02 0.02 0.03 0.03 0.03 0.02 0.02 0.03 0.04 0.03 0.02 0.01
0.02 0.02 0.01 0.01 0.01 0.01 0.01 0.01 0.01 0.02 0.02 0.02 0.03 0.04 0.06 0.06 0.06 0.04 0.02 0.01 0.02 0.02 0.03 0.04 0.03 0.02 0.01 0.03 0.02 0.01 0.02 0.02 0.02 0.02 0.02 0.02 0.02 0.03 0.04 0.03 0.03 0.02 0.01
0.01 0.02 0.02 0.02 0.01 0.01 0.01 0.01 0.01 0.02 0.02 0.03 0.03 0.03 0.05 0.04 0.05 0.05 0.03 0.02 0.02 0.03 0.04 0.04 0.04 0.02 0.01 0.02 0.02 0.02 0.02 0.02 0.02 0.03 0.03 0.04 0.03 0.03 0.03 0.03 0.03 0.02 0.01
0.01 0.02 0.02 0.02 0.02 0.02 0.01 0.01 0.01 0.02 0.03 0.03 0.03 0.02 0.03 0.04 0.03 0.03 0.03 0.02 0.02 0.03 0.03 0.04 0.03 0.02 0.02 0.01 0.01 0.02 0.02 0.02 0.02 0.02 0.02 0.03 0.02 0.03 0.03 0.03 0.02 0.01 0.01
0.02 0.02 0.03 0.02 0.02 0.02 0.02 0.01 0.01 0.02 0.02 0.02 0.02 0.01 0.02 0.02 0.02 0.03 0.03 0.02 0.02 0.02 0.02 0.03 0.02 0.02 0.02 0.01 0.01 0.01 0.02 0.02 0.02 0.01 0.02 0.03 0.03 0.03 0.03 0.02 0.01 0.00 0.01
0.02 0.03 0.05 0.04 0.04 0.04 0.05 0.03 0.02 0.02 0.01 0.01 0.01 0.02 0.02 0.02 0.02 0.02 0.03 0.02 0.02 0.01 0.01 0.01 0.01 0.02 0.02 0.02 0.01 0.01 0.01 0.01 0.01 0.01 0.01 0.02 0.02 0.02 0.02 0.02 0.01 0.01 0.01
0.01 0.03 0.04 0.04 0.04 0.05 0.06 0.05 0.02 0.02 0.02 0.02 0.02 0.03 0.03 0.03 0.03 0.02 0.02 0.02 0.01 0.01 0.02 0.02 0.02 0.02 0.02 0.02 0.01 0.01 0.02 0.02 0.02 0.02 0.01 0.01 0.01 0.01 0.02 0.02 0.02 0.01 0.01
0.01 0.02 0.05 0.06 0.04 0.04 0.05 0.05 0.04 0.03 0.02 0.03 0.04 0.05 0.05 0.04 0.04 0.03 0.02 0.02 0.02 0.01 0.01 0.02 0.03 0.03 0.03 0.02 0.02 0.03 0.03 0.03 0.02 0.02 0.02 0.02 0.01 0.01 0.01 0.02 0.02 0.02 0.01
0.01 0.02 0.04 0.07 0.06 0.04 0.04 0.04 0.03 0.02 0.02 0.03 0.04 0.05 0.07 0.07 0.04 0.03 0.04 0.03 0.03 0.03 0.02 0.02 0.02 0.03 0.04 0.04 0.04 0.04 0.05 0.03 0.03 0.03 0.03 0.02 0.01 0.01 0.01 0.01 0.02 0.02 0.03
0.01 0.02 0.05 0.06 0.07 0.05 0.04 0.03 0.02 0.02 0.02 0.02 0.04 0.06 0.07 0.07 0.06 0.03 0.02 0.02 0.02 0.03 0.02 0.02 0.02 0.03 0.04 0.06 0.07 0.06 0.04 0.04 0.04 0.03 0.02 0.02 0.01 0.01 0.01 0.01 0.01 0.02 0.02
0.01 0.02 0.04 0.07 0.07 0.07 0.05 0.03 0.02 0.01 0.02 0.03 0.05 0.05 0.06 0.06 0.06 0.04 0.03 0.03 0.03 0.03 0.04 0.05 0.04 0.04 0.04 0.05 0.06 0.05 0.04 0.03 0.02 0.03 0.03 0.02 0.01 0.01 0.01 0.02 0.02 0.02 0.02
0.01 0.02 0.03 0.06 0.06 0.05 0.05 0.05 0.03 0.02 0.02 0.03 0.03 0.03 0.05 0.06 0.06 0.05 0.04 0.04 0.03 0.04 0.04 0.06 0.06 0.06 0.07 0.06 0.04 0.03 0.03 0.03 0.02 0.02 0.03 0.03 0.02 0.02 0.01 0.01 0.02 0.02 0.02
0.01 0.02 0.02 0.04 0.06 0.07 0.08 0.07 0.05 0.04 0.03 0.03 0.02 0.03 0.05 0.05 0.06 0.05 0.05 0.04 0.04 0.05 0.05 0.05 0.05 0.06 0.07 0.06 0.05 0.05 0.03 0.03 0.03 0.03 0.03 0.03 0.03 0.02 0.02 0.02 0.02 0.02 0.03
0.00 0.01 0.03 0.04 0.07 0.11 0.11 0.09 0.06 0.04 0.04 0.03 0.02 0.03 0.05 0.05 0.04 0.04 0.04 0.04 0.04 0.05 0.07 0.07 0.07 0.06 0.06 0.06 0.07 0.05 0.04 0.04 0.03 0.03 0.03 0.03 0.02 0.02 0.04 0.03 0.02 0.02 0.03
0.00 0.00 0.03 0.06 0.09 0.11 0.12 0.11 0.08 0.06 0.06 0.04 0.04 0.06 0.07 0.06 0.04 0.03 0.03 0.03 0.03 0.04 0.06 0.08 0.07 0.07 0.08 0.08 0.08 0.07 0.05 0.04 0.02 0.02 0.02 0.03 0.02 0.02 0.03 0.03 0.02 0.02 0.02
0.00 0.00 0.01 0.05 0.08 0.08 0.08 0.09 0.10 0.10 0.09 0.08 0.09 0.08 0.06 0.04 0.03 0.02 0.02 0.03 0.03 0.04 0.05 0.07 0.07 0.09 0.08 0.09 0.08 0.06 0.04 0.03 0.02 0.02 0.02 0.02 0.02 0.01 0.02 0.03 0.03 0.04 0.03
0.00 0.00 0.00 0.02 0.05 0.07 0.06 0.05 0.06 0.07 0.08 0.08 0.08 0.05 0.03 0.02 0.02 0.02 0.02 0.02 0.03 0.03 0.05 0.06 0.05 0.06 0.07 0.08 0.06 0.05 0.03 0.02 0.02 0.02 0.01 0.01 0.01 0.02 0.01 0.01 0.03 0.04 0.05
0.00 0.00 0.00 0.01 0.03 0.04 0.05 0.04 0.03 0.04 0.05 0.05 0.05 0.03 0.02 0.02 0.01 0.01 0.02 0.02 0.02 0.02 0.03 0.04 0.04 0.05 0.06 0.06 0.06 0.05 0.04 0.03 0.02 0.02 0.01 0.01 0.01 0.01 0.01 0.02 0.01 0.01 0.02
0.00 0.00 0.00 0.00 0.01 0.02 0.03 0.03 0.03 0.02 0.02 0.02 0.02 0.02 0.02 0.02 0.01 0.01 0.02 0.02 0.01 0.01 0.02 0.03 0.03 0.03 0.04 0.04 0.04 0.04 0.04 0.04 0.02 0.01 0.01 0.01 0.01 0.01 0.02 0.02 0.02 0.01 0.01
0.00 0.00 0.00 0.01 0.01 0.02 0.03 0.03 0.03 0.02 0.01 0.01 0.01 0.01 0.01 0.02 0.01 0.02 0.02 0.02 0.02 0.02 0.01 0.02 0.02 0.02 0.02 0.02 0.02 0.03 0.03 0.03 0.03 0.02 0.02 0.02 0.02 0.02 0.02 0.02 0.01 0.01 0.01
0.00 0.00 0.00 0.01 0.01 0.02 0.03 0.03 0.03 0.02 0.01 0.01 0.01 0.01 0.01 0.01 0.02 0.02 0.03 0.02 0.01 0.02 0.02 0.02 0.02 0.03 0.03 0.02 0.02 0.02 0.02 0.02 0.02 0.03 0.02 0.02 0.02 0.02 0.02 0.02 0.01 0.01 0.01
0.00 0.00 0.00 0.01 0.01 0.02 0.03 0.03 0.03 0.02 0.01 0.01 0.02 0.01 0.01 0.01 0.03 0.03 0.03 0.02 0.02 0.01 0.02 0.02 0.01 0.02 0.02 0.01 0.01 0.01 0.01 0.02 0.02 0.02 0.02 0.02 0.03 0.03 0.03 0.03 0.02 0.02 0.02
0.00 0.00 0.00 0.00 0.01 0.03 0.04 0.04 0.03 0.02 0.01 0.01 0.02 0.01 0.01 0.02 0.03 0.04 0.04 0.02 0.02 0.02 0.02 0.02 0.01 0.01 0.01 0.01 0.01 0.01 0.02 0.02 0.02 0.02 0.01 0.02 0.03 0.03 0.03 0.03 0.03 0.03 0.03
0.00 0.00 0.00 0.00 0.01 0.03 0.03 0.03 0.03 0.02 0.02 0.01 0.02 0.02 0.02 0.02 0.02 0.03 0.03 0.03 0.02 0.02 0.02 0.02 0.02 0.01 0.01 0.00 0.00 0.01 0.02 0.03 0.03 0.02 0.02 0.03 0.03 0.03 0.03 0.03 0.03 0.02 0.02
0.00 0.00 0.00 0.01 0.01 0.03 0.04 0.03 0.04 0.03 0.02 0.01 0.01 0.02 0.02 0.02 0.03 0.03 0.03 0.03 0.03 0.03 0.02 0.02 0.03 0.03 0.02 0.01 0.01 0.01 0.01 0.02 0.02 0.02 0.02 0.02 0.02 0.02 0.02 0.02 0.02 0.01 0.01
0.00 0.00 0.00 0.01 0.01 0.03 0.06 0.06 0.05 0.04 0.04 0.03 0.02 0.02 0.02 0.02 0.03 0.03 0.03 0.05 0.05 0.04 0.03 0.03 0.03 0.03 0.02 0.02 0.02 0.01 0.01 0.01 0.02 0.02 0.02 0.02 0.02 0.02 0.01 0.01 0.02 0.02 0.02
MSLP
1017.25 1017.26 1017.21 1017.09 1016.92 1016.74 1016.58 1016.47 1016.45 1016.52 1016.66 1016.86 1017.07 1017.26 1017.40 1017.48 1017.50 1017.48 1017.46 1017.49 1017.58 1017.77 1018.05 1018.44 1018.90 1019.41 1019.95 1020.48 1021.00 1021.50 1021.99 1022.46 1022.92 1023.37 1023.81 1024.21 1024.58 1024.88 1025.12 1025.28 1025.36 1025.38 1025.34
1017.05 1017.15 1017.17 1017.09 1016.93 1016.73 1016.54 1016.40 1016.36 1016.42 1016.57 1016.79 1017.04 1017.25 1017.41 1017.50 1017.51 1017.49 1017.47 1017.49 1017.60 1017.82 1018.15 1018.59 1019.09 1019.64 1020.18 1020.71 1021.20 1021.65 1022.08 1022.51 1022.94 1023.39 1023.86 1024.33 1024.79 1025.21 1025.57 1025.85 1026.05 1026.17 1026.22
1016.70 1016.93 1017.05 1017.05 1016.94 1016.76 1016.56 1016.40 1016.33 1016.38 1016.54 1016.77 1017.03 1017.27 1017.45 1017.54 1017.56 1017.53 1017.50 1017.52 1017.64 1017.87 1018.22 1018.68 1019.20 1019.75 1020.29 1020.78 1021.22 1021.62 1021.99 1022.36 1022.76 1023.20 1023.69 1024.22 1024.76 1025.29 1025.78 1026.19 1026.53 1026.77 1026.92
1016.26 1016.64 1016.90 1017.01 1016.98 1016.84 1016.65 1016.49 1016.41 1016.44 1016.59 1016.82 1017.09 1017.34 1017.53 1017.64 1017.66 1017.63 1017.59 1017.61 1017.71 1017.94 1018.28 1018.73 1019.24 1019.77 1020.28 1020.72 1021.11 1021.44 1021.75 1022.07 1022.43 1022.86 1023.36 1023.93 1024.54 1025.16 1025.76 1026.31 1026.77 1027.14 1027.41
1015.80 1016.35 1016.76 1017.01 1017.08 1017.00 1016.85 1016.68 1016.59 1016.60 1016.73 1016.95 1017.22 1017.48 1017.68 1017.80 1017.83 1017.80 1017.76 1017.77 1017.85 1018.05 1018.37 1018.79 1019.27 1019.75 1020.21 1020.60 1020.94 1021.22 1021.47 1021.75 1022.08 1022.48 1022.98 1023.57 1024.22 1024.91 1025.59 1026.23 1026.80 1027.29 1027.68
1015.40 1016.10 1016.68 1017.06 1017.24 1017.23 1017.12 1016.97 1016.86 1016.85 1016.96 1017.16 1017.42 1017.68 1017.89 1018.02 1018.07 1018.05 1018.02 1018.01 1018.08 1018.25 1018.52 1018.89 1019.32 1019.75 1020.16 1020.51 1020.80 1021.04 1021.26 1021.51 1021.81 1022.19 1022.67 1023.25 1023.91 1024.61 1025.33 1026.02 1026.67 1027.24 1027.72
1015.11 1015.95 1016.66 1017.17 1017.44 1017.51 1017.43 1017.29 1017.18 1017.15 1017.23 1017.41 1017.66 1017.92 1018.15 1018.30 1018.37 1018.38 1018.36 1018.35 1018.40 1018.53 1018.76 1019.08 1019.45 1019.84 1020.21 1020.53 1020.80 1021.02 1021.23 1021.45 1021.73 1022.09 1022.54 1023.08 1023.70 1024.38 1025.08 1025.78 1026.45 1027.06 1027.60
1014.96 1015.91 1016.72 1017.31 1017.66 1017.78 1017.73 1017.61 1017.49 1017.45 1017.51 1017.68 1017.92 1018.18 1018.43 1018.61 1018.72 1018.75 1018.75 1018.75 1018.80 1018.91 1019.11 1019.38 1019.72 1020.07 1020.41 1020.71 1020.98 1021.21 1021.43 1021.65 1021.92 1022.25 1022.65 1023.14 1023.69 1024.29 1024.93 1025.58 1026.22 1026.83 1027.40
1014.96 1015.95 1016.81 1017.46 1017.85 1018.01 1017.99 1017.88 1017.77 1017.72 1017.77 1017.93 1018.17 1018.45 1018.72 1018.93 1019.08 1019.15 1019.19 1019.21 1019.26 1019.37 1019.55 1019.80 1020.10 1020.44 1020.77 1021.09 1021.37 1021.63 1021.87 1022.12 1022.38 1022.68 1023.03 1023.44 1023.89 1024.39 1024.93 1025.49 1026.06 1026.64 1027.20
1015.07 1016.06 1016.93 1017.58 1017.99 1018.16 1018.17 1018.08 1017.98 1017.95 1018.00 1018.17 1018.42 1018.71 1019.00 1019.25 1019.43 1019.56 1019.63 1019.69 1019.76 1019.88 1020.06 1020.30 1020.60 1020.94 1021.29 1021.63 1021.95 1022.25 1022.53 1022.80 1023.06 1023.34 1023.64 1023.96 1024.31 1024.69 1025.11 1025.56 1026.04 1026.55 1027.07
1015.24 1016.20 1017.02 1017.65 1018.04 1018.22 1018.25 1018.20 1018.13 1018.13 1018.22 1018.40 1018.66 1018.97 1019.28 1019.56 1019.78 1019.95 1020.06 1020.16 1020.27 1020.41 1020.60 1020.86 1021.17 1021.52 1021.89 1022.27 1022.64 1022.98 1023.30 1023.60 1023.88 1024.14 1024.39 1024.64 1024.89 1025.16 1025.45 1025.79 1026.17 1026.61 1027.09
1015.43 1016.31 1017.07 1017.64 1018.00 1018.19 1018.25 1018.24 1018.24 1018.29 1018.42 1018.64 1018.92 1019.25 1019.58 1019.88 1020.13 1020.32 1020.48 1020.61 1020.76 1020.93 1021.15 1021.43 1021.76 1022.13 1022.53 1022.94 1023.34 1023.73 1024.09 1024.41 1024.70 1024.95 1025.17 1025.36 1025.53 1025.71 1025.91 1026.15 1026.45 1026.82 1027.25
1015.56 1016.35 1017.02 1017.52 1017.87 1018.07 1018.17 1018.24 1018.31 1018.43 1018.63 1018.89 1019.21 1019.56 1019.90 1020.21 1020.48 1020.69 1020.88 1021.05 1021.23 1021.43 1021.68 1021.98 1022.33 1022.72 1023.14 1023.57 1024.00 1024.41 1024.79 1025.13 1025.43 1025.67 1025.87 1026.03 1026.16 1026.27 1026.41 1026.59 1026.82 1027.14 1027.53
1015.58 1016.28 1016.85 1017.30 1017.63 1017.86 1018.02 1018.18 1018.35 1018.57 1018.84 1019.17 1019.53 1019.89 1020.24 1020.56 1020.83 1021.06 1021.27 1021.47 1021.68 1021.92 1022.19 1022.51 1022.88 1023.27 1023.69 1024.12 1024.55 1024.96 1025.34 1025.69 1025.99 1026.24 1026.44 1026.58 1026.69 1026.79 1026.89 1027.04 1027.24 1027.52 1027.88
1015.45 1016.04 1016.55 1016.95 1017.28 1017.55 1017.80 1018.06 1018.35 1018.68 1019.04 1019.44 1019.84 1020.23 1020.59 1020.91 1021.18 1021.43 1021.66 1021.88 1022.12 1022.39 1022.68 1023.02 1023.38 1023.76 1024.16 1024.57 1024.98 1025.37 1025.74 1026.08 1026.37 1026.63 1026.83 1026.99 1027.11 1027.21 1027.32 1027.46 1027.65 1027.92 1028.25
1015.11 1015.64 1016.09 1016.47 1016.82 1017.16 1017.50 1017.87 1018.28 1018.73 1019.19 1019.66 1020.11 1020.53 1020.90 1021.23 1021.52 1021.78 1022.04 1022.29 1022.56 1022.85 1023.16 1023.50 1023.85 1024.21 1024.58 1024.94 1025.30 1025.65 1025.99 1026.31 1026.60 1026.85 1027.07 1027.25 1027.40 1027.53 1027.66 1027.82 1028.02 1028.27 1028.58
1014.59 1015.06 1015.48 1015.87 1016.26 1016.67 1017.11 1017.60 1018.13 1018.68 1019.24 1019.78 1020.28 1020.74 1021.14 1021.50 1021.81 1022.10 1022.38 1022.67 1022.97 1023.29 1023.61 1023.95 1024.28 1024.61 1024.93 1025.24 1025.55 1025.85 1026.14 1026.43 1026.71 1026.97 1027.20 1027.41 1027.60 1027.77 1027.94 1028.11 1028.32 1028.56 1028.84
1013.89 1014.35 1014.77 1015.18 1015.62 1016.11 1016.65 1017.24 1017.87 1018.52 1019.16 1019.76 1020.32 1020.82 1021.26 1021.65 1022.01 1022.34 1022.67 1023.00 1023.34 1023.68 1024.02 1024.35 1024.66 1024.96 1025.23 1025.48 1025.73 1025.98 1026.23 1026.49 1026.76 1027.02 1027.28 1027.52 1027.75 1027.95 1028.15 1028.34 1028.55 1028.77 1029.02
1013.10 1013.56 1014.01 1014.47 1014.96 1015.52 1016.14 1016.81 1017.52 1018.24 1018.94 1019.60 1020.21 1020.75 1021.24 1021.68 1022.09 1022.48 1022.86 1023.24 1023.62 1023.99 1024.34 1024.67 1024.96 1025.22 1025.44 1025.65 1025.86 1026.06 1026.28 1026.52 1026.78 1027.06 1027.34 1027.61 1027.87 1028.10 1028.32 1028.53 1028.72 1028.92 1029.12
1012.28 1012.79 1013.28 1013.79 1014.34 1014.96 1015.63 1016.36 1017.11 1017.87 1018.60 1019.30 1019.95 1020.54 1021.07 1021.57 1022.03 1022.48 1022.92 1023.35 1023.77 1024.16 1024.52 1024.84 1025.12 1025.35 1025.55 1025.72 1025.89 1026.08 1026.28 1026.52 1026.79 1027.08 1027.38 1027.68 1027.97 1028.23 1028.46 1028.66 1028.84 1029.00 1029.15
1011.53 1012.09 1012.64 1013.21 1013.82 1014.47 1015.18 1015.92 1016.69 1017.46 1018.20 1018.92 1019.58 1020.20 1020.78 1021.33 1021.85 1022.35 1022.84 1023.31 1023.76 1024.17 1024.53 1024.84 1025.10 1025.32 1025.50 1025.66 1025.82 1026.00 1026.21 1026.47 1026.76 1027.07 1027.40 1027.72 1028.03 1028.30 1028.53 1028.73 1028.88 1029.01 1029.11
1010.90 1011.52 1012.14 1012.76 1013.41 1014.09 1014.81 1015.55 1016.30 1017.05 1017.78 1018.48 1019.16 1019.80 1020.40 1020.99 1021.55 1022.10 1022.62 1023.12 1023.58 1023.99 1024.35 1024.64 1024.89 1025.09 1025.26 1025.43 1025.60 1025.80 1026.04 1026.32 1026.64 1026.98 1027.34 1027.68 1028.00 1028.28 1028.51 1028.70 1028.83 1028.93 1028.99
1010.39 1011.08 1011.76 1012.44 1013.12 1013.81 1014.51 1015.23 1015.95 1016.66 1017.36 1018.04 1018.71 1019.35 1019.98 1020.58 1021.17 1021.74 1022.28 1022.78 1023.23 1023.63 1023.97 1024.25 1024.48 1024.67 1024.84 1025.02 1025.22 1025.45 1025.72 1026.04 1026.40 1026.77 1027.15 1027.52 1027.84 1028.13 1028.36 1028.53 1028.65 1028.73 1028.78
1009.98 1010.74 1011.47 1012.18 1012.88 1013.57 1014.26 1014.94 1015.62 1016.29 1016.95 1017.61 1018.25 1018.89 1019.52 1020.13 1020.73 1021.30 1021.83 1022.31 1022.74 1023.11 1023.42 1023.68 1023.89 1024.08 1024.26 1024.45 1024.68 1024.95 1025.27 1025.63 1026.02 1026.42 1026.82 1027.19 1027.52 1027.80 1028.03 1028.19 1028.31 1028.39 1028.43
1009.61 1010.41 1011.18 1011.92 1012.63 1013.31 1013.98 1014.63 1015.27 1015.90 1016.53 1017.16 1017.79 1018.41 1019.04 1019.65 1020.24 1020.79 1021.30 1021.76 1022.15 1022.48 1022.76 1022.98 1023.18 1023.36 1023.55 1023.77 1024.03 1024.34 1024.69 1025.08 1025.49 1025.91 1026.31 1026.69 1027.01 1027.29 1027.51 1027.67 1027.80 1027.89 1027.96
1009.21 1010.02 1010.81 1011.56 1012.27 1012.95 1013.60 1014.23 1014.84 1015.44 1016.05 1016.66 1017.28 1017.90 1018.51 1019.11 1019.69 1020.22 1020.70 1021.12 1021.48 1021.78 1022.02 1022.22 1022.40 1022.58 1022.78 1023.02 1023.30 1023.64 1024.01 1024.42 1024.85 1025.27 1025.66 1026.02 1026.34 1026.60 1026.81 1026.99 1027.12 1027.24 1027.34
Thickness
5737 5738 5738 5737 5735 5733 5732 5731 5730 5729 5728 5725 5723 5720 5718 5718 5718 5719 5719 5718 5718 5717 5715 5713 5711 5710 5707 5705 5703 5701 5698 5695 5695 5692 5687 5687 5688 5687 5687 5686 5685 5684 5683
5731 5731 5731 5730 5729 5728 5727 5726 5726 5724 5723 5721 5720 5718 5716 5714 5713 5714 5714 5714 5714 5713 5712 5709 5707 5706 5703 5701 5699 5697 5693 5691 5691 5687 5681 5676 5677 5679 5681 5680 5680 5678 5677
5727 5727 5726 5724 5724 5723 5723 5724 5722 5721 5720 5718 5716 5714 5711 5709 5708 5708 5708 5710 5710 5709 5708 5706 5704 5702 5700 5697 5695 5694 5691 5687 5686 5686 5681 5673 5669 5670 5673 5673 5673 5673 5672
5725 5722 5722 5720 5719 5720 5720 5720 5718 5716 5715 5714 5711 5708 5705 5702 5703 5703 5704 5705 5705 5705 5704 5702 5700 5698 5696 5694 5692 5691 5689 5686 5683 5682 5682 5680 5676 5668 5665 5665 5666 5667 5667
5722 5720 5719 5718 5717 5716 5715 5714 5713 5711 5711 5710 5707 5704 5701 5700 5700 5699 5699 5699 5700 5700 5699 5698 5696 5694 5693 5691 5690 5688 5687 5685 5682 5680 5678 5676 5673 5670 5664 5659 5659 5660 5660
5719 5717 5717 5715 5713 5712 5710 5709 5707 5706 5706 5705 5703 5701 5698 5696 5695 5694 5693 5693 5694 5694 5694 5693 5692 5690 5689 5688 5687 5685 5684 5682 5680 5679 5677 5674 5670 5667 5663 5658 5655 5654 5654
5713 5711 5710 5708 5707 5706 5705 5704 5702 5701 5701 5701 5699 5697 5696 5694 5692 5690 5689 5689 5688 5689 5689 5689 5688 5687 5685 5684 5683 5681 5680 5679 5677 5676 5674 5672 5670 5668 5663 5658 5653 5651 5650
5708 5706 5705 5703 5702 5701 5700 5699 5698 5696 5696 5695 5694 5693 5692 5690 5689 5688 5687 5686 5685 5685 5685 5685 5684 5683 5682 5681 5679 5678 5676 5676 5674 5673 5671 5669 5668 5666 5663 5658 5652 5647 5645
5702 5701 5699 5698 5697 5695 5695 5694 5693 5692 5692 5691 5690 5689 5688 5686 5685 5684 5684 5682 5682 5682 5682 5681 5680 5679 5678 5677 5675 5673 5672 5671 5669 5668 5667 5665 5664 5663 5660 5658 5654 5648 5642
5697 5695 5694 5693 5692 5691 5691 5690 5690 5688 5688 5687 5686 5686 5684 5683 5682 5680 5679 5678 5678 5678 5677 5676 5675 5675 5674 5673 5671 5669 5668 5666 5664 5663 5662 5661 5659 5658 5656 5654 5651 5648 5644
5692 5690 5688 5688 5687 5685 5684 5683 5683 5684 5683 5682 5681 5681 5679 5679 5677 5676 5675 5674 5674 5673 5673 5672 5671 5670 5669 5668 5666 5664 5663 5661 5659 5659 5657 5655 5655 5653 5652 5650 5647 5644 5642
5688 5685 5684 5682 5680 5678 5678 5677 5677 5678 5678 5678 5676 5676 5675 5674 5672 5671 5670 5670 5669 5668 5668 5667 5667 5666 5664 5663 5662 5660 5658 5656 5655 5653 5652 5651 5650 5648 5647 5645 5643 5641 5639
5682 5679 5677 5675 5674 5673 5673 5673 5673 5673 5673 5673 5672 5671 5669 5668 5667 5667 5666 5665 5665 5664 5663 5662 5662 5661 5660 5658 5657 5655 5653 5652 5650 5649 5647 5646 5645 5643 5641 5640 5638 5636 5635
5676 5674 5671 5669 5669 5669 5668 5668 5668 5668 5668 5667 5666 5665 5664 5663 5663 5663 5662 5661 5660 5659 5659 5658 5657 5656 5655 5653 5652 5650 5649 5647 5645 5644 5643 5642 5641 5639 5637 5636 5634 5632 5629
5671 5669 5667 5665 5664 5664 5663 5663 5663 5663 5662 5661 5660 5660 5659 5659 5658 5657 5657 5656 5655 5655 5654 5653 5651 5650 5649 5648 5646 5645 5644 5641 5639 5638 5638 5637 5637 5636 5634 5633 5629 5627 5624
5667 5665 5663 5661 5659 5658 5658 5657 5657 5657 5656 5655 5654 5655 5654 5653 5652 5652 5652 5651 5649 5649 5648 5647 5646 5644 5644 5644 5642 5640 5638 5636 5634 5632 5632 5632 5631 5631 5630 5629 5627 5624 5621
5662 5660 5658 5656 5655 5654 5654 5652 5652 5651 5650 5649 5649 5649 5648 5648 5647 5647 5646 5644 5643 5642 5642 5641 5640 5639 5639 5638 5637 5635 5633 5631 5629 5627 5626 5626 5626 5625 5623 5622 5621 5619 5618
5659 5656 5654 5653 5651 5650 5648 5647 5646 5645 5644 5644 5644 5643 5643 5642 5642 5641 5640 5639 5638 5637 5636 5635 5634 5633 5633 5633 5632 5629 5627 5625 5623 5622 5621 5620 5619 5619 5618 5616 5614 5613 5612
5656 5653 5651 5649 5647 5645 5643 5641 5639 5639 5638 5638 5638 5639 5638 5637 5636 5635 5635 5634 5633 5631 5630 5629 5628 5627 5627 5627 5626 5624 5620 5617 5616 5615 5615 5614 5613 5614 5612 5610 5608 5606 5606
5651 5649 5646 5644 5641 5639 5638 5635 5633 5632 5632 5633 5633 5634 5633 5632 5631 5631 5630 5629 5628 5626 5625 5623 5623 5622 5621 5621 5620 5618 5615 5611 5609 5609 5609 5608 5608 5607 5606 5604 5602 5600 5599
5645 5644 5641 5637 5636 5634 5632 5629 5627 5626 5627 5628 5628 5628 5628 5627 5627 5626 5624 5623 5622 5619 5618 5617 5617 5616 5616 5614 5613 5612 5609 5607 5605 5603 5602 5602 5602 5601 5600 5599 5597 5597 5596
5638 5636 5633 5631 5630 5629 5626 5623 5622 5623 5622 5621 5621 5621 5621 5622 5622 5619 5618 5616 5615 5612 5611 5609 5609 5609 5609 5608 5607 5606 5604 5603 5600 5598 5598 5597 5596 5596 5594 5593 5592 5591 5589
5630 5629 5626 5624 5623 5622 5621 5618 5618 5617 5616 5615 5614 5615 5615 5614 5614 5613 5611 5609 5608 5606 5604 5603 5601 5601 5601 5601 5601 5600 5598 5597 5594 5593 5593 5591 5590 5588 5587 5587 5586 5584 5582
5623 5621 5619 5617 5615 5615 5614 5614 5613 5612 5610 5608 5607 5608 5608 5607 5606 5606 5604 5603 5601 5600 5598 5597 5595 5594 5593 5593 5593 5591 5590 5589 5587 5585 5584 5584 5582 5580 5579 5578 5577 5576 5575
5615 5613 5611 5609 5608 5608 5608 5607 5606 5605 5604 5603 5602 5602 5601 5600 5599 5598 5598 5598 5598 5597 5595 5594 5592 5590 5588 5589 5589 5587 5585 5583 5581 5578 5575 5573 5571 5570 5569 5568 5568 5568 5567
5608 5605 5603 5602 5602 5602 5601 5601 5600 5599 5597 5596 5596 5595 5595 5594 5593 5591 5591 5592 5592 5592 5591 5590 5589 5588 5587 5585 5583 5582 5580 5578 5575 5570 5567 5565 5564 5563 5562 5561 5560 5559 5559